Time,TemperatureF,DewpointF,PressureIn,WindDirection,WindDirectionDegrees,WindSpeedMPH,WindSpeedGustMPH,Humidity,HourlyPrecipIn,Conditions,Clouds,dailyrainin,SoftwareType,DateUTC
2013-09-20 00:11:00,64.0,58.0,29.49,West,261,0.0,0.0,82,0.00,,,-99.99,,2013-09-20 07:11:00,
2013-09-20 00:22:00,64.0,58.0,29.49,West,261,0.0,0.0,82,0.00,,,-99.99,,2013-09-20 07:22:00,
2013-09-20 00:53:00,64.0,58.0,29.49,West,261,0.0,0.0,82,0.00,,,-99.99,,2013-09-20 07:53:00,
2013-09-20 01:11:00,64.0,58.0,29.49,West,261,0.0,1.0,82,0.00,,,-99.99,,2013-09-20 08:11:00,
2013-09-20 01:21:00,64.0,58.0,29.49,West,261,0.0,1.0,82,0.00,,,-99.99,,2013-09-20 08:21:00,
2013-09-20 01:52:00,64.0,58.0,29.49,West,261,0.0,0.0,82,0.00,,,-99.99,,2013-09-20 08:52:00,
2013-09-20 02:12:00,64.0,58.0,29.49,West,261,0.0,0.0,82,0.00,,,-99.99,,2013-09-20 09:12:00,
2013-09-20 02:22:00,64.0,58.0,29.49,West,261,0.0,0.0,82,0.00,,,-99.99,,2013-09-20 09:22:00,
2013-09-20 02:53:00,64.0,58.0,29.49,West,261,0.0,0.0,81,0.00,,,-99.99,,2013-09-20 09:53:00,
2013-09-20 03:12:00,64.0,58.0,29.49,West,261,0.0,0.0,81,0.00,,,-99.99,,2013-09-20 10:12:00,
2013-09-20 03:23:00,64.0,58.0,29.49,West,261,0.0,0.0,81,0.00,,,-99.99,,2013-09-20 10:23:00,
2013-09-20 03:53:00,64.0,58.0,29.49,West,261,0.0,0.0,81,0.00,,,-99.99,,2013-09-20 10:53:00,
2013-09-20 04:12:00,64.0,58.0,29.48,West,261,0.0,0.0,80,0.00,,,-99.99,,2013-09-20 11:12:00,
2013-09-20 04:23:00,64.0,58.0,29.48,West,261,0.0,0.0,80,0.00,,,-99.99,,2013-09-20 11:23:00,
2013-09-20 04:52:00,64.0,57.0,29.47,NE,49,0.0,2.0,79,0.00,,,-99.99,,2013-09-20 11:52:00,
2013-09-20 05:12:00,64.0,57.0,29.47,NE,51,0.0,2.0,79,0.00,,,-99.99,,2013-09-20 12:12:00,
2013-09-20 05:22:00,64.0,57.0,29.47,NE,51,0.0,2.0,79,0.00,,,-99.99,,2013-09-20 12:22:00,
2013-09-20 05:52:00,64.0,57.0,29.48,NE,51,0.0,0.0,79,0.00,,,-99.99,,2013-09-20 12:52:00,
2013-09-20 06:21:00,64.0,58.0,29.48,NE,51,0.0,1.0,80,0.00,,,-99.99,,2013-09-20 13:21:00,
2013-09-20 06:52:00,64.0,58.0,29.49,NE,51,0.0,0.0,80,0.00,,,-99.99,,2013-09-20 13:52:00,
2013-09-20 07:11:00,64.0,58.0,29.49,NE,51,0.0,1.0,80,0.00,,,-99.99,,2013-09-20 14:11:00,
2013-09-20 07:21:00,64.0,58.0,29.49,NE,51,0.0,1.0,80,0.00,,,-99.99,,2013-09-20 14:21:00,
2013-09-20 07:52:00,64.0,57.0,29.49,NE,51,0.0,1.0,79,0.00,,,-99.99,,2013-09-20 14:52:00,
2013-09-20 08:12:00,64.0,57.0,29.50,NE,51,0.0,2.0,79,0.00,,,-99.99,,2013-09-20 15:12:00,
2013-09-20 08:21:00,64.0,57.0,29.50,NE,51,0.0,2.0,79,0.00,,,-99.99,,2013-09-20 15:21:00,
2013-09-20 08:33:00,64.0,57.0,29.50,NE,51,0.0,2.0,79,0.00,,,-99.99,,2013-09-20 15:33:00,
2013-09-20 09:13:00,64.0,57.0,29.52,NE,56,0.0,3.0,79,0.00,,,-99.99,,2013-09-20 16:13:00,
2013-09-20 09:23:00,64.0,57.0,29.52,NE,56,0.0,3.0,79,0.00,,,-99.99,,2013-09-20 16:23:00,
2013-09-20 10:13:00,66.0,58.0,29.53,NE,56,0.0,1.0,76,0.00,,,-99.99,,2013-09-20 17:13:00,
2013-09-20 10:23:00,66.0,58.0,29.53,NE,56,0.0,1.0,76,0.00,,,-99.99,,2013-09-20 17:23:00,
2013-09-20 10:53:00,66.0,58.0,29.54,NW,317,0.0,2.0,75,0.00,,,-99.99,,2013-09-20 17:53:00,
2013-09-20 11:12:00,66.0,57.0,29.55,NW,306,1.0,5.0,74,0.00,,,-99.99,,2013-09-20 18:12:00,
2013-09-20 11:22:00,66.0,57.0,29.55,NW,306,1.0,5.0,74,0.00,,,-99.99,,2013-09-20 18:22:00,
2013-09-20 11:52:00,67.0,58.0,29.55,WNW,285,0.0,3.0,74,0.00,,,-99.99,,2013-09-20 18:52:00,
2013-09-20 12:11:00,67.0,59.0,29.55,SW,226,0.0,0.0,75,0.00,,,-99.99,,2013-09-20 19:11:00,
2013-09-20 12:22:00,67.0,59.0,29.55,SW,226,0.0,0.0,75,0.00,,,-99.99,,2013-09-20 19:22:00,
2013-09-20 12:53:00,68.0,59.0,29.54,SSW,198,0.0,1.0,74,0.00,,,-99.99,,2013-09-20 19:53:00,
2013-09-20 13:12:00,68.0,59.0,29.54,WNW,285,1.0,6.0,72,0.00,,,-99.99,,2013-09-20 20:12:00,
2013-09-20 13:22:00,68.0,59.0,29.54,WNW,285,1.0,6.0,72,0.00,,,-99.99,,2013-09-20 20:22:00,
2013-09-20 13:52:00,69.0,59.0,29.54,South,173,1.0,4.0,71,0.00,,,-99.99,,2013-09-20 20:52:00,
2013-09-20 14:12:00,69.0,60.0,29.53,West,270,0.0,3.0,72,0.00,,,-99.99,,2013-09-20 21:12:00,
2013-09-20 14:21:00,69.0,60.0,29.53,West,270,0.0,3.0,72,0.00,,,-99.99,,2013-09-20 21:21:00,
2013-09-20 14:54:00,69.0,60.0,29.53,South,188,1.0,6.0,72,0.00,,,-99.99,,2013-09-20 21:54:00,
2013-09-20 15:04:00,69.0,60.0,29.53,South,188,1.0,6.0,72,0.00,,,-99.99,,2013-09-20 22:04:00,
2013-09-20 15:53:00,71.0,60.0,29.53,SSW,202,0.0,4.0,68,0.00,,,-99.99,,2013-09-20 22:53:00,
2013-09-20 16:13:00,71.0,60.0,29.52,SSW,205,1.0,5.0,68,0.00,,,-99.99,,2013-09-20 23:13:00,
2013-09-20 16:22:00,71.0,60.0,29.52,SSW,205,1.0,5.0,68,0.00,,,-99.99,,2013-09-20 23:22:00,
2013-09-20 16:34:00,71.0,60.0,29.52,SSW,205,1.0,5.0,68,0.00,,,-99.99,,2013-09-20 23:34:00,
2013-09-20 18:12:00,68.0,59.0,29.50,South,182,0.0,1.0,72,0.00,,,-99.99,,2013-09-21 01:12:00,
2013-09-20 18:22:00,68.0,59.0,29.50,South,182,0.0,1.0,72,0.00,,,-99.99,,2013-09-21 01:22:00,
2013-09-20 18:52:00,67.0,58.0,29.51,South,178,0.0,2.0,72,0.00,,,-99.99,,2013-09-21 01:52:00,
2013-09-20 19:12:00,66.0,58.0,29.51,WNW,294,3.0,8.0,75,0.00,,,-99.99,,2013-09-21 02:12:00,
2013-09-20 19:22:00,66.0,58.0,29.51,WNW,294,3.0,8.0,75,0.00,,,-99.99,,2013-09-21 02:22:00,
2013-09-20 19:52:00,65.0,58.0,29.52,West,277,2.0,6.0,78,0.00,,,-99.99,,2013-09-21 02:52:00,
2013-09-20 20:02:00,65.0,58.0,29.52,West,277,2.0,6.0,78,0.00,,,-99.99,,2013-09-21 03:02:00,
2013-09-20 21:14:00,65.0,58.0,29.54,West,273,0.0,0.0,78,0.00,,,-99.99,,2013-09-21 04:14:00,
2013-09-20 21:24:00,65.0,58.0,29.54,West,273,0.0,0.0,78,0.00,,,-99.99,,2013-09-21 04:24:00,
2013-09-20 21:33:00,65.0,58.0,29.54,West,273,0.0,0.0,78,0.00,,,-99.99,,2013-09-21 04:33:00,
2013-09-20 22:13:00,65.0,58.0,29.55,West,281,0.0,4.0,78,0.00,,,-99.99,,2013-09-21 05:13:00,
2013-09-20 22:23:00,65.0,58.0,29.55,West,281,0.0,4.0,78,0.00,,,-99.99,,2013-09-21 05:23:00,
2013-09-20 22:34:00,65.0,58.0,29.55,West,281,0.0,4.0,78,0.00,,,-99.99,,2013-09-21 05:34:00,
2013-09-20 23:12:00,64.0,57.0,29.55,West,281,0.0,0.0,79,0.00,,,-99.99,,2013-09-21 06:12:00,
2013-09-20 23:22:00,64.0,57.0,29.55,West,281,0.0,0.0,79,0.00,,,-99.99,,2013-09-21 06:22:00,
2013-09-20 23:42:00,64.0,57.0,29.54,West,281,0.0,0.0,79,0.00,,,-99.99,,2013-09-21 06:42:00,
2013-09-20 23:52:00,64.0,57.0,29.54,West,281,0.0,0.0,79,0.00,,,-99.99,,2013-09-21 06:52:00,